Location: Rumah Dana
(3.1167°N, 113.0167°E)
Time: 14:38:12
(UTC+00:00)

Cosmos 2221 Rocket - Pass Details

Date: 03 August 2024
Orbit: 618 x 644 km, 82.5° (Epoch: 10 September)

Event Time Altitude Azimuth Distance (km) Brightness Sun altitude
Rises 21:42:38 0° 356° (N) 2,938 7.2 -11.3°
Reaches altitude 10° 21:44:53 10° 356° (N) 2,030 6.4 -10.8°
Maximum altitude 21:49:24 89° 80° (E) 645 3.6 -9.7°
Drops below altitude 10° 21:53:54 10° 176° (S) 2,027 6.1 -8.6°
Sets 21:56:08 0° 176° (S) 2,933 6.9 -8.1°
